Location: Cicognara
(44.9500°N, 10.4667°E)
Time: 11:35:32
(UTC+00:00)

Lacrosse 4 Rocket - Visible Passes

Search period start: 23 October 2021 00:00
Search period end: 02 November 2021 00:00
Orbit: 540 x 616 km, 68.0° (Epoch: 23 October)

Date Brightness Start Highest point End Pass type
(mag) Time Alt. Az. Time Alt. Az. Time Alt. Az.
23 Oct 1.9 17:25:39 10° NNW 17:29:47 43° NE 17:33:00 16° ESE visible
23 Oct 3.7 19:04:51 10° WNW 19:08:11 22° WSW 19:09:21 19° SW visible
24 Oct 1.4 17:29:53 10° NNW 17:34:11 65° ENE 17:38:32 10° SE visible
24 Oct 4.4 19:10:01 10° WNW 19:12:21 14° WSW 19:14:42 10° SW visible
25 Oct 1.5 17:34:12 10° NNW 17:38:33 83° WSW 17:42:57 10° SSE visible
26 Oct 2.3 17:38:37 10° NW 17:42:51 54° WSW 17:47:09 10° SSE visible
27 Oct 3.2 17:43:09 10° NW 17:47:07 35° WSW 17:51:08 10° S visible
28 Oct 4.0 17:47:53 10° WNW 17:51:20 23° WSW 17:54:50 10° SSW visible
29 Oct 4.6 17:52:56 10° WNW 17:55:30 15° WSW 17:58:05 10° SW visible
